TimeCDT,TemperatureF,Dew PointF,Humidity,Sea Level PressureIn,VisibilityMPH,Wind Direction,Wind SpeedMPH,Gust SpeedMPH,PrecipitationIn,Events,Conditions,WindDirDegrees,DateUTC
12:53 AM,84.0,77.0,79,30.03,10.0,South,10.4,-,N/A,,Scattered Clouds,180,2012-09-02 05:53:00
1:14 AM,84.2,78.8,84,30.03,10.0,South,9.2,-,N/A,,Mostly Cloudy,170,2012-09-02 06:14:00
1:23 AM,84.2,77.0,79,30.03,10.0,South,10.4,-,N/A,,Scattered Clouds,180,2012-09-02 06:23:00
1:53 AM,84.0,75.9,76,30.03,10.0,South,10.4,-,N/A,,Clear,170,2012-09-02 06:53:00
2:53 AM,84.2,75.2,74,30.02,10.0,South,11.5,-,N/A,,Scattered Clouds,170,2012-09-02 07:53:00
3:07 AM,84.2,75.2,74,30.02,10.0,South,10.4,-,N/A,,Mostly Cloudy,170,2012-09-02 08:07:00
3:21 AM,84.2,75.2,74,30.02,10.0,South,12.7,-,N/A,,Scattered Clouds,170,2012-09-02 08:21:00
3:53 AM,84.0,75.9,76,30.02,10.0,South,9.2,-,N/A,,Partly Cloudy,180,2012-09-02 08:53:00
4:53 AM,84.9,75.0,72,30.01,10.0,South,11.5,-,N/A,,Partly Cloudy,180,2012-09-02 09:53:00
5:53 AM,84.0,75.9,76,30.01,10.0,South,10.4,-,N/A,,Scattered Clouds,180,2012-09-02 10:53:00
6:53 AM,84.0,75.9,76,30.03,10.0,South,10.4,-,N/A,,Partly Cloudy,180,2012-09-02 11:53:00
7:53 AM,84.9,75.9,74,30.04,10.0,South,9.2,-,N/A,,Clear,190,2012-09-02 12:53:00
8:53 AM,87.1,75.9,69,30.05,10.0,SSW,10.4,-,N/A,,Clear,200,2012-09-02 13:53:00
9:53 AM,88.0,75.9,67,30.06,10.0,SSW,9.2,-,N/A,,Clear,200,2012-09-02 14:53:00
10:53 AM,90.0,75.9,63,30.07,10.0,South,10.4,-,N/A,,Clear,190,2012-09-02 15:53:00
11:53 AM,91.0,75.9,61,30.06,10.0,South,10.4,-,N/A,,Clear,190,2012-09-02 16:53:00
12:53 PM,91.9,75.9,59,30.06,10.0,South,9.2,-,N/A,,Clear,190,2012-09-02 17:53:00
1:53 PM,91.0,75.9,61,30.03,10.0,SSW,10.4,-,N/A,,Clear,200,2012-09-02 18:53:00
2:53 PM,93.0,75.9,57,30.01,10.0,SSW,11.5,-,N/A,,Clear,200,2012-09-02 19:53:00
3:53 PM,91.0,75.9,61,29.99,10.0,SSE,13.8,-,N/A,,Clear,160,2012-09-02 20:53:00
4:53 PM,90.0,75.0,61,29.98,10.0,South,11.5,-,N/A,,Clear,170,2012-09-02 21:53:00
5:53 PM,89.1,75.9,65,29.97,10.0,South,10.4,-,N/A,,Clear,170,2012-09-02 22:53:00
6:53 PM,87.1,75.9,69,29.96,10.0,SSE,10.4,-,N/A,,Partly Cloudy,160,2012-09-02 23:53:00
7:53 PM,84.9,75.9,74,29.96,10.0,SSE,8.1,-,N/A,,Scattered Clouds,160,2012-09-03 00:53:00
8:53 PM,84.9,75.0,72,29.98,10.0,SSE,11.5,-,N/A,,Partly Cloudy,160,2012-09-03 01:53:00
9:53 PM,84.9,75.9,74,29.98,10.0,South,10.4,-,N/A,,Partly Cloudy,170,2012-09-03 02:53:00
10:53 PM,84.0,75.0,74,29.99,10.0,South,10.4,-,N/A,,Clear,180,2012-09-03 03:53:00
11:53 PM,86.0,75.9,72,29.99,10.0,South,11.5,-,N/A,,Partly Cloudy,170,2012-09-03 04:53:00